Regional Weather Roundup
Issued by NWS Cleveland, OH

Home | Current Version | Previous Version | Text Only | Print | Product List | Glossary Off
Versions: 1 2 3 4 5 6 7 8 9 10 11 12 13 14 15 16 17 18 19 20 21 22 23 24 25 26 27 28 29 30 31 32 33 34 35 36 37 38 39 40 41 42 43 44 45 46 47 48 49 50

000
ASUS41 KCLE 262010
RWRCLE
OHIO REGIONAL WEATHER ROUNDUP
NATIONAL WEATHER SERVICE WILMINGTON, OH
400 PM EDT TUE MAY 26 2015

NOTE: "FAIR" INDICATES FEW OR NO CLOUDS BELOW 12,000 FEET WITH NO
SIGNIFICANT WEATHER AND/OR OBSTRUCTIONS TO VISIBILITY.

OHZ001>008-015>018-024>027-034-035-043-044-262100-
   NORTHWEST OHIO

CITY           SKY/WX    TMP DP  RH WIND       PRES   REMARKS
DEFIANCE       PTSUNNY   84  63  49 S15G25    29.89F
FINDLAY        MOSUNNY   87  62  43 S21G30    29.93F
TOLEDO EXPRESS PTSUNNY   86  61  42 S10       29.91F
TOLEDO EXEC    PTSUNNY   86  61  42 S23G29    29.92F
LIMA           PTSUNNY   85  62  46 S21G29    29.94F
$$

OHZ009>014-019>023-028>033-038-089-262100-
   NORTHEAST OHIO

CITY           SKY/WX    TMP DP  RH WIND       PRES   REMARKS
CLE-HOPKINS    PTSUNNY   82  63  52 S9G22     30.02F
CLE-LAKEFRONT  PTSUNNY   84  62  47 S16       30.00F
CUY CO. ARPT   MOSUNNY   84  66  54 S14       30.03F
LORAIN-ELYRIA  PTSUNNY   84  63  49 S17G24    30.00F
ASHTABULA      PTSUNNY   80  64  58 S17G24    30.06F
AKRON-CANTON   PTSUNNY   82  62  50 S13G23    30.07F
WOOSTER        MOSUNNY   83  63  50 S16G23    30.05F
MANSFIELD      MOSUNNY   84  63  49 S18G25    30.02F
YOUNGSTOWN     PTSUNNY   79  63  57 S12G21    30.09F
$$

OHZ042-051>053-060>062-070>072-077>081-262100-
  SOUTHWEST OHIO

CITY           SKY/WX    TMP DP  RH WIND       PRES   REMARKS
CINC-COVINGTON CLOUDY    80  69  69 S20G25    29.99F
CINC-LUNKEN    PTSUNNY   76  71  85 S6        30.00F
HAMILTON       LGT RAIN  76  68  76 S7G17     29.99S
DAYTON         LGT RAIN  78  70  76 S10       29.98F
WRIGHT-PAT AFB HVY RAIN  82  66  57 S26G44    29.98F
DAYTON GENERAL LGT RAIN  72  69  90 S10       30.00S FOG
WILMINGTON     PTSUNNY   78  66  66 S14       30.02F
$$

OHZ036-037-039>041-045>050-054>059-063>069-073>076-082>088-262100-
  CENTRAL AND SOUTHEAST OHIO

CITY           SKY/WX    TMP DP  RH WIND       PRES   REMARKS
COLUMBUS       PTSUNNY   83  63  50 S20       30.00F
OSU AIRPORT    LGT RAIN  81  65  58 S14G28    30.00F
BOLTON FIELD   PTSUNNY   84  64  51 S17G24    30.02F
RICKENBACK AFB PTSUNNY   82  64  55 S17       30.01F
NEWARK         MOSUNNY   84  65  52 S15G21    30.02F
MARION         PTSUNNY   83  61  47 S18G26    29.99F
LANCASTER      MOSUNNY   84  64  50 S14G21    30.03F
ZANESVILLE     PTSUNNY   81  65  58 S9        30.06F
NEW PHILLY     LGT RAIN  83  65  54 S9        30.07F
$$



USA.gov is the U.S. government's official web portal to all federal, state and local government web resources and services.